Stations météo

Publicité
Hurguada, Egypte (62463): Température de l'air & dewpoint: 16.09.2018 05:00:00 - 22.09.2018 05:00:00 (EET)Hurguada, Egypte (62463): Vitesse du vent: 16.09.2018 05:00:00 - 22.09.2018 05:00:00 (EET)Hurguada, Egypte (62463): Direction du vent: 16.09.2018 05:00:00 - 22.09.2018 05:00:00 (EET)Hurguada, Egypte (62463): reduced air pressure: 16.09.2018 05:00:00 - 22.09.2018 05:00:00 (EET)Hurguada, Egypte (62463): visibility: 16.09.2018 05:00:00 - 22.09.2018 05:00:00 (EET)
Date & Time tt [°C] td [°C] ff [km/h] ff [knt] dd ppp [hPa] vv [km]
22.09.2018 05:00:00 - - - - - - -
22.09.2018 04:00:00 - - - - - - -
22.09.2018 03:00:00 - - - - - - -
22.09.2018 02:00:00 26,6 10,7 8 4 N 1009,7 10
22.09.2018 01:00:00 - - - - - - -
22.09.2018 00:00:00 - - - - - - -
21.09.2018 23:00:00 28,9 9,6 16 9 NW 1010,0 10
21.09.2018 22:00:00 - - - - - - -
21.09.2018 21:00:00 - - - - - - -
21.09.2018 20:00:00 30,0 16,1 24 13 N 1009,3 10
21.09.2018 19:00:00 - - - - - - -
21.09.2018 18:00:00 - - - - - - -
21.09.2018 17:00:00 31,9 17,0 34 18 N 1007,7 10
21.09.2018 16:00:00 - - - - - - -
21.09.2018 15:00:00 - - - - - - -
21.09.2018 14:00:00 35,3 15,1 34 18 N 1008,0 10
21.09.2018 13:00:00 - - - - - - -
21.09.2018 12:00:00 - - - - - - -
21.09.2018 11:00:00 33,6 15,4 35 19 N 1010,0 10
21.09.2018 10:00:00 - - - - - - -
21.09.2018 09:00:00 - - - - - - -
21.09.2018 08:00:00 29,5 14,1 24 13 NW 1009,8 10
21.09.2018 07:00:00 - - - - - - -
21.09.2018 06:00:00 - - - - - - -
21.09.2018 05:00:00 26,2 15,0 16 9 NNW 1009,0 10
21.09.2018 04:00:00 - - - - - - -
21.09.2018 03:00:00 - - - - - - -
21.09.2018 02:00:00 27,9 11,0 22 12 NW 1008,5 10
21.09.2018 01:00:00 - - - - - - -
21.09.2018 00:00:00 - - - - - - -
20.09.2018 23:00:00 29,5 7,3 15 8 WNW 1009,5 10
20.09.2018 22:00:00 - - - - - - -
20.09.2018 21:00:00 - - - - - - -
20.09.2018 20:00:00 31,3 11,1 24 13 N 1009,1 10
20.09.2018 19:00:00 - - - - - - -
20.09.2018 18:00:00 - - - - - - -
20.09.2018 17:00:00 33,0 14,1 29 16 N 1007,7 10
20.09.2018 16:00:00 - - - - - - -
20.09.2018 15:00:00 - - - - - - -
20.09.2018 14:00:00 35,8 10,9 34 18 N 1007,5 10
20.09.2018 13:00:00 - - - - - - -
20.09.2018 12:00:00 - - - - - - -
20.09.2018 11:00:00 34,0 13,5 42 23 N 1010,1 10
20.09.2018 10:00:00 - - - - - - -
20.09.2018 09:00:00 - - - - - - -
20.09.2018 08:00:00 29,6 9,1 18 10 NNW 1010,5 10
20.09.2018 07:00:00 - - - - - - -
20.09.2018 06:00:00 - - - - - - -
20.09.2018 05:00:00 27,0 9,8 21 11 NW 1009,7 10
20.09.2018 04:00:00 - - - - - - -
20.09.2018 03:00:00 - - - - - - -
20.09.2018 02:00:00 28,4 8,6 18 10 NW 1009,2 10
20.09.2018 01:00:00 - - - - - - -
20.09.2018 00:00:00 - - - - - - -
19.09.2018 23:00:00 28,5 8,2 11 6 WNW 1009,9 10
19.09.2018 22:00:00 - - - - - - -
19.09.2018 21:00:00 - - - - - - -
19.09.2018 20:00:00 30,2 14,3 18 10 N 1009,4 10
19.09.2018 19:00:00 - - - - - - -
19.09.2018 18:00:00 - - - - - - -
19.09.2018 17:00:00 33,0 14,2 26 14 N 1008,1 10
19.09.2018 16:00:00 - - - - - - -
19.09.2018 15:00:00 - - - - - - -
19.09.2018 14:00:00 35,8 11,4 28 15 NNE 1008,2 10
19.09.2018 13:00:00 - - - - - - -
19.09.2018 12:00:00 - - - - - - -
19.09.2018 11:00:00 33,8 15,3 31 17 N 1010,6 10
19.09.2018 10:00:00 - - - - - - -
19.09.2018 09:00:00 - - - - - - -
19.09.2018 08:00:00 29,8 10,2 18 10 NW 1010,8 10
19.09.2018 07:00:00 - - - - - - -
19.09.2018 06:00:00 - - - - - - -
19.09.2018 05:00:00 26,6 11,5 9 5 NNW 1009,4 10
19.09.2018 04:00:00 - - - - - - -
19.09.2018 03:00:00 - - - - - - -
19.09.2018 02:00:00 28,3 10,9 18 10 NW 1008,9 10
19.09.2018 01:00:00 - - - - - - -
19.09.2018 00:00:00 - - - - - - -
18.09.2018 23:00:00 29,1 13,3 15 8 WNW 1009,1 10
18.09.2018 22:00:00 - - - - - - -
18.09.2018 21:00:00 - - - - - - -
18.09.2018 20:00:00 31,0 16,0 16 9 NNW 1008,4 10
18.09.2018 19:00:00 - - - - - - -
18.09.2018 18:00:00 - - - - - - -
18.09.2018 17:00:00 32,8 18,1 31 17 N 1006,8 10
18.09.2018 16:00:00 - - - - - - -
18.09.2018 15:00:00 - - - - - - -
18.09.2018 14:00:00 34,5 15,4 130 70 N 1006,7 10
18.09.2018 13:00:00 - - - - - - -
18.09.2018 12:00:00 - - - - - - -
18.09.2018 11:00:00 33,0 17,2 37 20 N 1008,6 10
18.09.2018 10:00:00 - - - - - - -
18.09.2018 09:00:00 - - - - - - -
18.09.2018 08:00:00 28,8 15,6 26 14 NW 1008,4 10
18.09.2018 07:00:00 - - - - - - -
18.09.2018 06:00:00 - - - - - - -
18.09.2018 05:00:00 26,4 16,3 21 11 NW 1007,0 10
18.09.2018 04:00:00 - - - - - - -
18.09.2018 03:00:00 - - - - - - -
18.09.2018 02:00:00 27,3 14,7 15 8 WNW 1006,6 10
18.09.2018 01:00:00 - - - - - - -
18.09.2018 00:00:00 - - - - - - -
17.09.2018 23:00:00 28,1 14,0 11 6 WNW 1007,3 10
17.09.2018 22:00:00 - - - - - - -
17.09.2018 21:00:00 - - - - - - -
17.09.2018 20:00:00 28,9 19,2 16 9 N 1007,4 10
17.09.2018 19:00:00 - - - - - - -
17.09.2018 18:00:00 - - - - - - -
17.09.2018 17:00:00 31,8 18,7 29 16 N 1005,9 10
17.09.2018 16:00:00 - - - - - - -
17.09.2018 15:00:00 - - - - - - -
17.09.2018 14:00:00 33,2 17,8 37 20 N 1006,8 10
17.09.2018 13:00:00 - - - - - - -
17.09.2018 12:00:00 - - - - - - -
17.09.2018 11:00:00 32,6 14,7 44 24 N 1005,8 10
17.09.2018 10:00:00 - - - - - - -
17.09.2018 09:00:00 - - - - - - -
17.09.2018 08:00:00 29,2 13,8 37 20 N 1008,7 10
17.09.2018 07:00:00 - - - - - - -
17.09.2018 06:00:00 - - - - - - -
17.09.2018 05:00:00 26,1 13,6 29 16 NW 1008,3 10
17.09.2018 04:00:00 - - - - - - -
17.09.2018 03:00:00 - - - - - - -
17.09.2018 02:00:00 27,1 15,1 26 14 NW 1008,6 10
17.09.2018 01:00:00 - - - - - - -
17.09.2018 00:00:00 - - - - - - -
16.09.2018 23:00:00 28,4 11,9 18 10 NW 1009,3 10
16.09.2018 22:00:00 - - - - - - -
16.09.2018 21:00:00 - - - - - - -
16.09.2018 20:00:00 30,6 14,0 28 15 N 1009,0 10
16.09.2018 19:00:00 - - - - - - -
16.09.2018 18:00:00 - - - - - - -
16.09.2018 17:00:00 32,6 17,0 34 18 N 1007,8 10
16.09.2018 16:00:00 - - - - - - -
16.09.2018 15:00:00 - - - - - - -
16.09.2018 14:00:00 34,0 15,9 35 19 N 1008,8 10
16.09.2018 13:00:00 - - - - - - -
16.09.2018 12:00:00 - - - - - - -
16.09.2018 11:00:00 33,0 13,6 41 22 N 1009,8 10
16.09.2018 10:00:00 - - - - - - -
16.09.2018 09:00:00 - - - - - - -
16.09.2018 08:00:00 29,2 12,2 24 13 NNW 1010,4 10
16.09.2018 07:00:00 - - - - - - -
16.09.2018 06:00:00 - - - - - - -
16.09.2018 05:00:00 26,1 13,9 29 16 NW 1009,9 10

tt = Température de l'air
td = dewpoint
ff = Vitesse du vent
dd = Direction du vent
ppp = reduced air pressure
vv = visibility

stations d'obs. à proximité